Weather in Petra Dubrava

Russia / Samara Oblast     53°17′42″N   50°22′02″E
temp.,
°C
wind,
m/s
gust,
m/s
humid.,
%
clouds,
%
prec.,
mm/h
press.,
hPa
HPBL,
m
26 july, mon
mon2601:00+17ene1142100 0.0 102250
04:00+17ssw114498 0.0 102320
07:00+18wnw114385 0.0 1023159
10:00+22nw343363 0.0 10232072
13:00+24nw452779 0.0 10222811
16:00+24nw462912 0.0 10212732
19:00+23nnw463613 0.0 10211069
22:00+18nw224665 0.0 102148
27 july, tue
tue2701:00+19wnw124298 0.0 102150
04:00+16wnw115512 0.0 102120
07:00+19w23515 0.0 1021221
10:00+24wnw36356 0.0 10201827
13:00+25wnw463182 0.0 10182439
16:00+24nw473630 0.0 10171432
19:00+23wnw484233 0.0 1016624
22:00+20nnw3766100 0.1 1017222
28 july, wed
wed2801:00+17nnw23760 0.1 101788
04:00+15nnw25834 0.1 1017116
07:00+18nnw36670 0.0 1018277
10:00+23nnw45385 0.0 10181434
13:00+26nnw45255 0.0 10172308
16:00+27nnw46235 0.0 10162681
19:00+25nnw45335 0.0 10161071
22:00+19nne11470 0.0 101611
29 july, thu
thu2901:00+18ssw224984 0.0 101530
04:00+18sw2650100 0.0 1014131
07:00+20sw31050100 0.0 1013339
10:00+25sw61137100 0.0 1012938
13:00+26w71140100 0.0 10111751
16:00+20sse5127089 0.6 1009359
19:00+21wsw31184100 1.5 1007437
22:00+19wsw39945 3.2 1007232
30 july, fri
fri3001:00+19wsw311956 0.6 1007273
04:00+18wsw3119481 0.6 1007264
07:00+20wsw388420 0.0 1007246
10:00+26wnw475018 0.0 10081023
13:00+30wnw68358 0.0 10081974
16:00+31nw463299 0.0 10072034
19:00+28n1143100 0.0 100721
22:00+24sse22515 0.0 100839